Погода Остров Визе

Погода Остров Визе : погода сейчас, прогноз погоды и архив. Всё, что Вы хотите узнать о погоде Остров Визе!

Поиск расширенной информации на нашем сайте:

Другие новости

Новости СМИ2

Главная страница сайта

Новости сайта

02.10.2013

Напоминаем, что на нашем новом сайте вы можете получить высокодетализированные прогнозы погоды по пунктам России, СНГ и мира (включающие важные для авиации метеовеличины, такие как направление и скорость ветра, видимость, явления погоды, количество и форма облачности, нижняя и верхняя граница облачности), а также ознакомиться с разнообразными материалами по авиационной метеорологии и подборкой полезных ссылок на эту тему.

Сайт Метеоцентр.Азия посвящён разработке технологий оптимизации авиаметеорологического обслуживания, включая проектирование и перспективное создание нескольких автоматизированных авиаметеорологических систем:
- система выпуска высокодетальных прогностических карт явлений погоды для нижнего воздушного пространства по России и ближнему зарубежью;
- система верификации прогнозов TAF (выпускаемых синоптиками официальных АМСГ РФ и ближнего зарубежья) и AUTOTAF (выпускаемых сайтом Метеоцентр.Азия) - выявление ошибок, онлайн-сопоставление с фактической погодой METAR, автоматическое внесение коррективов в прогнозы при резком отклонении фактической погоды от прогноза, подсчёт оправдываемости прогнозов по элементам и в целом;
- система обработки, анализа и отображения авиаметеорологической информации для применения провайдерами метеорологической информации.


Погода Остров Визе - сегодня

Время (UTC), дата Ветер
(°,м/с) 
Видим.   Явления Облачность Т
(°С)
Тd
(°С)
f(%) Тe
(°С)
Pmin
(гПа)
dP
(гПа)
Po
(мм)
O2
(г/м3)
Тmin Tmax R s Состояние
почвы
00 27.04.17 300 (СЗ) 30000 м  позёмок{ливн. осадки}  6/0 средняя 
[Ac trans]
-17.5 -19.8 82 -24  1010.3  1.1  756  327  -17.8    0.5  36  равномерный
сухой снег
100% 
03 27.04.17 300 (СЗ) 7{10}  30000 м  позёмок  9/0 средняя 
[Ac As]
-14 -17.8 73 -21  1010.5  0.2  756  323           
06 27.04.17 310 (СЗ) 9-10{10}  23000 м  позёмок  9/0 средняя 
[Ac As]
-14 -16.4 82 -22  1010.3  -0.2  756  323           
09 27.04.17 300 (СЗ) 6{10}  30000 м  позёмок  9/8 700 м средняя 
[Sc|Ac As]
-14 -17.1 77 -20  1011.1  0.8  757  323           
12 27.04.17 310 (СЗ) 28000 м    9/9 660 м 
[Sc]
-13.9 -17.3 75 -19  1011.5  0.4  757  323    -13.4       
15 27.04.17 330 (СЗ) 30000 м    9/9 600 м 
[Sc]
-13.7 -16.5 79 -14  1010.7  -0.8  757  322           
18 27.04.17 230 (ЮЗ) 27000 м    9/9 720 м 
[Sc]
-12 -14.4 82 -16  1010.1  -0.6  756  320           
21 27.04.17 160 (Ю) 13000 м  слаб. снег  10/6 800 м средняя 
[Sc|As op]
-11.1 -13.9 80 -15  1008.7  -1.4  755  318           
00 28.04.17 140 (ЮВ) 8-10{10}  6000 м  снег  10/8 420 м средняя 
[Sc|As op]
-10.7 -12.1 89 -17  1006.5  -2.2  753  317  -14.6    0.3  37  равномерный
сухой снег
100% 
03 28.04.17 150 (ЮВ) 11-14{15}  0800 м  снег  10/4 600 м средняя 
[Sc|As op]
-10.4 -11.7 90 -18  1004  -2.5  752  316           
06 28.04.17 150 (ЮВ) 8-12{14}  1500 м  снег  10/8 300 м средняя 
[Sc|As op]
-8.9 -10.1 91 -15  1003.2  -0.7  751  314           
09 28.04.17 210 (ЮЗ) 4{12}  35000 м  {снег}  4/0 средняя, верхняя 
[Ac trans|Ci fib]
-7.9 -9.8 86 -12  1003.6  0.4  751  313           
12 28.04.17 200 (Ю) 40000 м  {снег}  3/0 верхняя 
[Ci fib]
-9.2 -11 87 -12  1005.1  1.5  752  315    -6.8  0.8     
15 28.04.17 110 (В) 30000 м    8/6 360 м средняя 
[Sc|Ac As]
-9.8 -11 91 -13  1006  0.9  753  316           
18 28.04.17 110 (В) 12000 м  слаб. ливневой снег  9/9 500 м кучево-дожд. 
[Cb cap]
-9.5 -10.6 92 -12  1006.9  0.9  754  316           
21 28.04.17 200 (Ю) 35000 м  {ливн. осадки}  6/4 600 м средняя 
[Sc|Ac As]
-13.5 -14.8 90 -13  1008.2  1.2  755  321           
00 29.04.17 170 (Ю) 35000 м  {ливн. осадки}  3/0 средняя, верхняя 
[Ac trans|Ci fib]
-13.2 -14.7 88 -15  1009.2  755  321  -14    0.0  38  равномерный
сухой снег
100% 
03 29.04.17 170 (Ю) 14000 м  слаб. снег  10/8 180 м средняя 
[Frnb|As trans]
-11.1 -12.2 92 -14  1010.2  756  319  -14.3         
06 29.04.17 230 (ЮЗ) 13000 м  слаб. снег  10/8 300 м средняя 
[Sc|As op]
-10.2 -11.5 90 -14  1011.2  757  318           
12 29.04.17 230 (ЮЗ) 14000 м  слаб. снег  10/8 420 м средняя 
[Sc|As op]
-9.6 -11.7 85 -13  1012.1  0.5  758  318    -9.6  0.3     
15 29.04.17 210 (ЮЗ) 13000 м  слаб. снег  10/8 450 м средняя 
[Sc|As op]
-10.3 -12.6 83 -14  1012.1  758  318           
18 29.04.17 240 (ЮЗ) 11000 м  слаб. снег  10/8 500 м средняя 
[Sc|As op]
-10.9 -12.8 86 -13  1012.1  758  319           
21 29.04.17 210 (ЮЗ) 14000 м  слаб. снег  10/8 420 м средняя 
[Sc|As op]
-10.9 -12.9 85 -15  1012.5  0.4  758  319           
00 30.04.17 190 (Ю) 35000 м  {снег}  8/4 600 м средняя 
[Sc|Ac trans]
-11.6 -13.4 86 -15  1013.5  759  321  -11.9    0.4  39  равномерный
сухой снег
100% 
03 30.04.17 240 (ЮЗ) 12000 м  слаб. ливневой снег  9/9 400 м кучево-дожд. 
[Cb cap]
-12.2 -14 86 -14  1014.7  1.2  760  322  -12.8         
Время (UTC), дата Ветер
(°,м/с) 
Видим.   Явления Облачность Т
(°С)
Тd
(°С)
f(%) Тe
(°С)
Pmin
(гПа)
dP
(гПа)
Po
(мм)
O2
(г/м3)
Тmin Tmax R s Состояние
почвы

Для получения пояснительной информации подведите курсор к названию столбца.

ПОГОДА Остров Визе - архив

Всё, что Вы хотите узнать о погоде Остров Визе - удобно и подробно!

Выберите нужную дату (начиная с 1 января 2015* года) и нажмите кнопку "Найти".
Будут отображены архивные сводки погоды по пункту Остров Визе, начиная с указанной даты.


Отображать данные в формате CSV (для использования в таблицах Excel)


Внимание! Наш архив погоды предназначен исключительно для личного некоммерческого использования в познавательных целях. Если Вам необходимы официальные справки о состоянии погоды (для производственных, юридических, коммерческих и т.п. целей), обращайтесь в органы Росгидромета.

*Примечание: данная дата относится к архиву по метеостанциям СССР (Россия, СНГ, Балтия).
Архив по метеостанциям Зарубежной Европы и Азии (кроме Китая) хранится 10 дней, по другим регионам земного шара (Китай, Африка, Америка, Австралия, Океания) - 1 день.

Остров Визе - район местоположения метеостанции


Название, широта, долгота, высота метеостанции:
Остров Визе 79.5°ш. 77°д. 10 м над ур. моря [Российская Федерация]

Дополнительная информация

В oтличие oт бoльшинства пoгoдных сайтoв мы публикуем пoдрoбную метеoинфoрмацию в детальнoм прoфессиoнальнoм фoрмате.

Характеристики температуры и влажнoсти вoздуха измеряются на высoте 2 м в тени вдали oт зданий и деревьев.
Скoрoсть ветра измеряется на высoте 10 м (на урoвне рoста челoвека скoрoсть ветра ниже в 1.5-2 раза). Если метеoстанция нахoдится в гoрoде или в лесу, тo скoрoсть ветра занижена на 2-4 м/с пo сравнению с oткрытым местoм. Скoрoсть ветра над акватoриями крупных рек и oзёр, а также на вершинах хoлмoв на 2-5 м/с выше, чем в oбычных услoвиях.
Атмoсфернoе давление в разных тoчках местнoсти мoжет значительнo oтличаться oт давления на метеoстанции, в зависимoсти oт услoвий рельефа (при пoдъёме на 10 м давление пoнижается примернo на 1 мм рт.ст.).